Weather Roundup
Issued by NWS

Home | Current Version | Previous Version | Graphics & Text | Print | Product List | Glossary Off
Versions: 1 2 3 4 5 6 7 8 9 10 11 12 13 14 15 16 17 18 19 20 21 22 23 24 25 26 27 28 29 30 31 32 33 34 35 36 37 38 39 40 41 42 43 44 45 46 47 48 49 50

000
NZUS93 KARX 250659
HRRWXR

CURRENT HOURLY OBSERVATIONS ACROSS
MUCH OF THE UPPER MISSISSIPPI VALLEY
NATIONAL WEATHER SERVICE LA CROSSE WI
200 AM CDT MON MAY 25 2015


...SOUTHEAST MINNESOTA...


CITY           SKY/WX    TMP DP  RH WIND       PRES   REMARKS
ROCHESTER      CLOUDY    59  58  96 SE10      29.74F FOG
ROCHESTER/MAYO CLOUDY    58  58 100 E8        29.73F
WINONA         LGT RAIN  59  57  94 SE5       29.74F
AUSTIN         DRIZZLE   61  61 100 SE5       29.72F
ALBERT LEA     LGT RAIN  63  63 100 CALM      29.72S
DODGE CENTER   CLOUDY    61  59  94 SE10      29.73F FOG
PRESTON        RAIN      58  57  97 E3        29.75F
OWATONNA       RAIN      61  57  88 SE8       29.71F
FARIBAULT      DRIZZLE   61  59  94 SE8       29.72F
$$

...ELSEWHERE IN MINNESOTA...


CITY           SKY/WX    TMP DP  RH WIND       PRES   REMARKS
MINNEAPOLIS    LGT RAIN  58  58 100 E12       29.72F FOG
INTNL FALLS    CLOUDY    57  49  74 SE3       29.85F
DULUTH         LGT RAIN  58  55  90 NE10      29.85F FOG
RED WING       LGT RAIN  57  57 100 E7        29.73F
REDWOOD FALLS  LGT RAIN  58  57  97 CALM      29.71F FOG
MANKATO        CLOUDY    61  59  94 SE6       29.70F
WORTHINGTON    CLOUDY    57  55  94 W3        29.73F VSB 1/2
FAIRMONT       CLOUDY    61  55  82 SW6       29.71F
$$

...SOUTHWEST WISCONSIN...


CITY           SKY/WX    TMP DP  RH WIND       PRES   REMARKS
LA CROSSE      CLOUDY    61  59  93 SE3       29.74F FOG
PRAIRIE DU CHI CLOUDY    66  64  90 SE7       29.75F
BOSCOBEL       CLOUDY    61  59  93 NE6       29.76F FOG
LONE ROCK      CLOUDY    62  60  93 E7        29.79F FOG
PLATTEVILLE    CLOUDY    66  65  99 S12       29.79F
FORT MC COY    CLOUDY    59  58  95 SE8       29.77F FOG
CAMP DOUGLAS   CLOUDY    57  57 100 SE9       29.78F FOG
VIROQUA        CLOUDY    61  61 100 SE12      29.77F VSB 1
WIS DELLS      CLOUDY    59  57  95 CALM      29.80F FOG
$$

...ELSEWHERE IN WISCONSIN...


CITY           SKY/WX    TMP DP  RH WIND       PRES   REMARKS
MILWAUKEE      CLOUDY    58  56  93 E5        29.86F FOG
MADISON        LGT RAIN  64  62  93 S10       29.81F FOG
GREEN BAY      CLOUDY    59  57  93 E6        29.86F FOG
EAU CLAIRE     NOT AVBL
BLACK RVR FLS  RAIN      58  58 100 CALM      29.77F
MEDFORD        CLOUDY    54  54  99 E8        29.82F FOG
WAUSAU         LGT RAIN  56  55  97 E9        29.81F
WIS RAPIDS     LGT RAIN  58  55  90 SE7       29.81F
MARSHFIELD     LGT RAIN  57  54  89 E12       29.79F FOG
RICE LAKE      RAIN      57  55  92 E8        29.81F
$$

...NORTHEAST IOWA...


CITY           SKY/WX    TMP DP  RH WIND       PRES   REMARKS
DECORAH        CLOUDY    63  63 100 S7        29.74F FOG
MASON CITY     CLOUDY    63  62  97 SW7       29.74F
CHARLES CITY   CLOUDY    63  63 100 S6        29.75F FOG
OELWEIN        CLOUDY    64  64 100 S10       29.76F
$$

...ELSEWHERE IN IOWA...


CITY           SKY/WX    TMP DP  RH WIND       PRES   REMARKS
DES MOINES     LGT RAIN  64  61  90 SW10      29.76F
IOWA CITY      LGT RAIN  66  66 100 W3        29.78F
FORT DODGE     CLOUDY    61  57  88 SW3       29.75S VSB 1/2
$$

...NORTHERN ILLINOIS...


CITY           SKY/WX    TMP DP  RH WIND       PRES   REMARKS
CHICAGO-OHARE  CLOUDY    72  62  71 S16G24    29.86F
CHICAGO-MIDWAY CLOUDY    75  63  66 S14G22    29.87F
MOLINE         CLOUDY    67  64  90 SE5       29.77F
ROCKFORD       LGT RAIN  67  65  93 MISG      29.85F
PEORIA         CLOUDY    70  65  84 S13G22    29.83F
$$

NOTE: "FAIR" INDICATES FEW OR NO CLOUDS BELOW 12,000 FEET WITH NO
SIGNIFICANT WEATHER AND/OR OBSTRUCTIONS TO VISIBILITY. WIND
SPEEDS ARE IN MILES-PER-HOUR.



USA.gov is the U.S. government's official web portal to all federal, state and local government web resources and services.